Location: Milevsko
(49.4500°N, 14.3670°E)
Time: 09:29:41
(UTC+02:00)

ISS - Pass Details

Date: 18 July 2018
Orbit: 402 x 408 km, 51.6° (Epoch: 17 July)

Event Time Altitude Azimuth Distance (km) Brightness Sun altitude
Exits shadow 23:58:10 61° 191° (S) 465 -3.9 -17.9°
Maximum altitude 23:58:28 66° 156° (SSE) 448 -4.0 -17.9°
Drops below altitude 10° 00:01:44 10° 74° (ENE) 1,468 -1.0 -18.1°
Sets 00:03:50 0° 71° (ENE) 2,332 0.1 -18.2°
